Total_Precipitation_Accumulation
0.00 0.00 0.00 0.00 0.00 0.00 0.00 0.00 0.12 0.03 0.01 0.05 0.02 0.05 0.18 0.00 0.00 0.01 0.03 0.01 0.07 0.02 0.01 0.02 0.04 0.01 0.05 0.53 0.39 0.31 0.25 0.54 0.65 0.62 1.91 1.01 1.25 1.86 1.89 3.17 1.97 1.52 1.37 1.23 2.05 1.22 2.05 1.49 0.74 0.53 0.11 0.29 0.39 0.18 0.11 0.10 0.11 0.07 0.14 0.09 0.14 0.07 0.09 0.05 0.09 0.09 0.09 0.08 0.08 0.12 0.06 0.08 0.04 0.06 0.11 0.08 0.08 0.06 0.06 0.13 0.15 0.17 0.18 0.21 0.15 0.17 0.10 0.14 0.21 0.12 0.19 0.15 0.16 0.18 0.15 0.16 0.13
0.00 0.00 0.00 0.00 0.00 0.00 0.02 0.00 0.02 0.02 0.01 0.04 0.12 0.02 0.03 0.00 0.00 0.01 0.05 0.05 0.03 0.05 0.01 0.05 0.02 0.02 0.04 0.04 0.09 0.03 0.19 0.24 0.24 0.38 0.67 0.99 1.32 1.21 2.29 2.97 2.47 1.47 1.48 1.58 1.56 1.45 1.33 0.93 0.60 0.26 0.23 0.41 0.48 0.23 0.19 0.09 0.13 0.10 0.13 0.14 0.20 0.23 0.17 0.13 0.18 0.14 0.05 0.07 0.08 0.09 0.07 0.06 0.08 0.10 0.14 0.10 0.05 0.05 0.08 0.18 0.26 0.32 0.21 0.14 0.20 0.15 0.09 0.13 0.19 0.15 0.15 0.15 0.16 0.13 0.12 0.13 0.14
0.00 0.00 0.00 0.00 0.00 0.00 0.00 0.00 0.05 0.03 0.07 0.04 0.03 0.01 0.01 0.02 0.00 0.02 0.02 0.04 0.10 0.02 0.02 0.02 0.01 0.04 0.05 0.23 0.20 0.28 1.41 0.31 0.46 0.26 0.66 0.62 0.92 1.74 2.14 3.27 2.52 1.86 1.45 1.32 1.73 0.83 0.57 0.61 0.54 0.36 0.37 0.34 0.39 0.16 0.27 0.17 0.09 0.13 0.11 0.14 0.40 0.40 0.38 0.20 0.21 0.16 0.16 0.10 0.09 0.08 0.08 0.11 0.13 0.16 0.14 0.26 0.06 0.05 0.07 0.14 0.33 0.25 0.19 0.19 0.21 0.20 0.20 0.19 0.18 0.17 0.21 0.15 0.11 0.14 0.10 0.10 0.07
0.00 0.00 0.00 0.00 0.01 0.00 0.00 0.00 0.00 0.02 0.02 0.06 0.04 0.00 0.00 0.00 0.01 0.00 0.02 0.01 0.02 0.00 0.02 0.06 0.05 0.02 0.08 0.24 0.21 0.09 0.21 0.58 0.66 0.28 0.67 0.88 1.14 1.46 2.47 3.26 3.19 2.04 1.27 1.58 1.04 0.68 0.41 0.52 0.44 0.39 0.49 0.49 0.38 0.27 0.21 0.06 0.20 0.17 0.16 0.36 0.47 0.55 0.43 0.36 0.38 0.22 0.15 0.15 0.08 0.09 0.12 0.17 0.21 0.27 0.34 0.16 0.08 0.07 0.13 0.17 0.19 0.21 0.19 0.21 0.28 0.17 0.14 0.18 0.12 0.20 0.18 0.13 0.09 0.09 0.07 0.05 0.05
0.00 0.00 0.00 0.00 0.01 0.00 0.00 0.00 0.01 0.01 0.02 0.02 0.08 0.01 0.00 0.00 0.01 0.02 0.02 0.01 0.01 0.01 0.00 0.04 0.02 0.03 0.01 0.18 0.15 0.29 0.67 0.45 0.45 0.44 0.65 0.75 1.04 1.71 2.21 2.85 2.98 2.32 1.81 1.47 1.09 0.60 0.73 0.98 0.49 0.77 0.45 0.39 0.37 0.30 0.22 0.12 0.25 0.34 0.39 0.46 0.60 0.79 0.45 0.26 0.29 0.21 0.13 0.12 0.11 0.12 0.14 0.19 0.18 0.52 0.20 0.10 0.11 0.09 0.09 0.08 0.10 0.15 0.10 0.09 0.10 0.04 0.06 0.05 0.07 0.08 0.06 0.05 0.05 0.04 0.05 0.02 0.03
0.00 0.00 0.00 0.00 0.02 0.00 0.00 0.01 0.01 0.00 0.01 0.00 0.02 0.02 0.00 0.00 0.01 0.01 0.01 0.00 0.03 0.03 0.02 0.04 0.14 0.23 0.15 0.25 0.31 0.36 0.35 0.78 0.61 0.81 0.70 1.31 1.62 2.29 2.05 2.45 2.53 1.99 2.11 2.42 1.29 0.85 1.09 0.56 0.86 0.86 0.99 0.67 0.67 0.56 0.47 0.28 0.36 0.53 0.71 0.42 0.60 0.43 0.41 0.40 0.18 0.14 0.22 0.13 0.11 0.13 0.12 0.17 0.24 0.27 0.32 0.20 0.13 0.13 0.14 0.14 0.09 0.07 0.10 0.09 0.09 0.04 0.05 0.04 0.03 0.03 0.03 0.04 0.07 0.05 0.01 0.01 0.01
0.00 0.00 0.00 0.00 0.00 0.00 0.00 0.00 0.00 0.00 0.01 0.00 0.00 0.00 0.01 0.00 0.01 0.00 0.04 0.01 0.00 0.00 0.01 0.07 0.02 0.06 0.23 0.16 0.17 0.35 0.36 0.33 0.76 0.85 1.16 1.20 0.85 1.48 1.91 2.19 2.29 2.14 2.18 2.79 1.97 1.07 1.16 0.95 0.65 0.94 0.99 0.53 0.51 0.40 0.47 0.19 0.23 0.47 0.60 0.37 0.25 0.44 0.47 0.27 0.10 0.17 0.11 0.15 0.13 0.13 0.15 0.13 0.19 0.20 0.23 0.24 0.12 0.13 0.16 0.06 0.08 0.08 0.09 0.07 0.07 0.07 0.05 0.06 0.04 0.04 0.03 0.04 0.03 0.01 0.01 0.02 0.03
0.00 0.00 0.00 0.00 0.00 0.00 0.00 0.00 0.00 0.00 0.01 0.00 0.00 0.00 0.00 0.00 0.00 0.00 0.01 0.00 0.09 0.02 0.09 0.01 0.01 0.18 1.30 0.06 0.72 0.49 0.33 0.77 0.91 0.56 0.81 1.37 1.18 1.80 2.16 2.27 2.09 3.16 2.21 2.41 1.76 1.26 1.87 0.74 0.61 0.50 0.59 0.53 0.56 0.74 0.59 0.51 0.38 0.53 0.27 0.28 0.20 0.26 0.24 0.19 0.14 0.11 0.13 0.17 0.17 0.10 0.14 0.23 0.13 0.29 0.19 0.13 0.19 0.10 0.10 0.09 0.07 0.13 0.08 0.06 0.04 0.05 0.06 0.05 0.05 0.03 0.03 0.02 0.01 0.00 0.02 0.03 0.01
0.00 0.00 0.00 0.00 0.00 0.00 0.00 0.00 0.00 0.00 0.00 0.00 0.00 0.00 0.00 0.00 0.00 0.00 0.00 0.00 0.00 0.01 0.06 0.10 0.09 0.25 0.94 0.32 0.55 0.67 0.58 0.66 1.09 0.86 1.12 1.23 2.02 2.01 2.57 2.29 2.42 1.98 2.51 2.38 1.56 1.69 1.09 0.60 0.45 0.56 0.47 0.44 0.53 0.81 0.55 0.57 0.69 0.64 0.82 0.45 0.23 0.19 0.20 0.14 0.17 0.11 0.12 0.13 0.15 0.26 0.18 0.18 0.15 0.13 0.17 0.12 0.19 0.13 0.10 0.14 0.10 0.12 0.04 0.05 0.05 0.07 0.04 0.04 0.03 0.05 0.02 0.02 0.01 0.01 0.00 0.00 0.00
0.00 0.00 0.00 0.00 0.00 0.00 0.00 0.00 0.00 0.00 0.01 0.00 0.00 0.00 0.00 0.00 0.00 0.00 0.01 0.01 0.01 0.19 0.05 0.00 0.02 0.21 0.23 0.97 0.59 0.73 0.97 0.59 0.77 0.57 0.94 1.40 2.19 2.77 2.25 3.19 3.06 2.85 3.31 3.00 1.59 1.22 1.34 1.62 0.47 0.49 0.29 0.37 0.55 0.86 0.65 0.76 0.72 0.72 0.96 0.73 0.26 0.20 0.20 0.24 0.18 0.12 0.11 0.10 0.15 0.18 0.18 0.16 0.20 0.11 0.13 0.11 0.13 0.21 0.08 0.08 0.06 0.09 0.08 0.05 0.04 0.05 0.02 0.02 0.02 0.03 0.02 0.01 0.01 0.01 0.00 0.00 0.00
0.00 0.00 0.00 0.00 0.00 0.00 0.01 0.01 0.00 0.00 0.00 0.00 0.00 0.00 0.00 0.00 0.00 0.00 0.06 0.02 0.03 0.04 0.05 0.04 0.04 0.07 0.09 0.75 1.03 1.17 1.09 0.68 0.53 0.90 1.42 1.38 3.15 2.86 4.25 3.03 3.14 3.13 3.35 3.40 2.32 1.36 1.10 1.33 1.08 0.42 0.47 0.59 0.60 0.70 0.86 0.88 0.75 0.68 0.87 0.66 0.27 0.21 0.15 0.22 0.19 0.19 0.16 0.13 0.17 0.18 0.25 0.13 0.15 0.14 0.18 0.16 0.18 0.10 0.05 0.06 0.06 0.11 0.07 0.04 0.03 0.01 0.01 0.01 0.01 0.01 0.02 0.01 0.01 0.01 0.01 0.00 0.00
0.00 0.00 0.00 0.00 0.00 0.00 0.00 0.00 0.00 0.02 0.00 0.00 0.00 0.01 0.00 0.01 0.00 0.00 0.01 0.10 0.20 0.04 0.10 0.05 0.28 0.12 0.33 0.53 0.92 2.04 1.33 0.92 1.66 1.05 1.57 1.99 2.17 2.19 3.43 2.14 2.39 3.64 2.95 3.62 2.37 1.42 1.26 1.15 1.38 1.39 0.93 0.95 0.94 0.97 0.94 0.91 0.99 0.68 0.64 0.57 0.26 0.23 0.16 0.26 0.27 0.28 0.21 0.25 0.12 0.15 0.21 0.28 0.28 0.20 0.14 0.12 0.13 0.12 0.09 0.07 0.12 0.12 0.06 0.04 0.05 0.02 0.02 0.02 0.02 0.01 0.00 0.00 0.00 0.01 0.01 0.01 0.01
0.00 0.00 0.00 0.00 0.00 0.00 0.00 0.00 0.00 0.00 0.00 0.01 0.03 0.03 0.01 0.01 0.02 0.01 0.04 0.10 0.15 0.06 0.16 0.12 0.27 0.41 0.91 0.70 1.31 1.29 1.41 1.38 1.39 1.31 1.36 1.84 2.49 2.82 2.64 3.33 4.67 3.61 4.11 3.12 1.63 1.17 0.88 0.95 0.90 1.38 1.41 1.19 1.06 0.86 0.64 1.05 0.83 0.74 0.82 0.59 0.53 0.41 0.23 0.29 0.26 0.26 0.37 0.33 0.15 0.23 0.18 0.32 0.28 0.28 0.14 0.21 0.09 0.16 0.09 0.11 0.08 0.07 0.04 0.02 0.02 0.03 0.01 0.00 0.00 0.00 0.00 0.00 0.00 0.00 0.00 0.00 0.01
0.00 0.00 0.00 0.00 0.00 0.00 0.00 0.01 0.00 0.01 0.00 0.06 0.05 0.06 0.00 0.03 0.12 0.20 0.20 0.22 0.17 0.12 0.06 0.06 0.03 0.09 0.59 0.50 1.56 1.47 1.61 1.66 1.40 1.89 1.47 2.01 1.97 2.71 3.48 2.68 4.30 3.25 3.53 2.67 2.29 1.36 1.04 0.82 1.14 0.82 1.28 1.13 1.52 1.27 0.76 0.79 0.79 0.69 0.80 0.73 0.40 0.41 0.62 0.42 0.29 0.31 0.28 0.23 0.21 0.26 0.26 0.26 0.28 0.24 0.28 0.23 0.18 0.32 0.11 0.07 0.07 0.05 0.04 0.02 0.01 0.02 0.04 0.03 0.03 0.04 0.07 0.01 0.00 0.00 0.00 0.00 0.00
0.00 0.00 0.00 0.00 0.00 0.00 0.00 0.00 0.01 0.01 0.22 0.06 0.03 0.01 0.05 0.01 0.02 0.03 0.06 0.15 0.16 0.04 0.03 0.01 0.01 0.14 1.66 0.29 1.26 0.85 1.03 1.75 2.33 2.42 2.43 2.28 1.95 3.63 4.71 4.47 5.11 3.98 2.84 2.66 2.23 2.22 1.41 1.22 1.02 1.08 1.29 1.33 1.36 1.72 2.00 1.78 1.40 1.74 1.26 0.49 0.51 0.64 0.77 1.12 0.89 0.59 0.36 0.31 0.34 0.31 0.39 0.42 0.32 0.31 0.27 0.26 0.21 0.35 0.29 0.09 0.11 0.05 0.04 0.03 0.02 0.01 0.05 0.05 0.08 0.02 0.00 0.01 0.00 0.00 0.00 0.00 0.00
0.00 0.00 0.00 0.00 0.00 0.00 0.02 0.00 0.00 0.05 0.17 0.05 0.03 0.00 0.05 0.05 0.01 0.05 0.09 0.05 0.12 0.06 0.04 0.22 0.03 0.22 0.31 0.25 0.66 0.64 1.19 1.75 2.58 2.48 2.69 2.28 3.12 3.75 3.28 3.05 3.07 2.83 2.56 2.54 2.72 2.46 1.33 1.45 1.25 1.30 1.07 1.43 1.86 1.90 1.69 1.36 2.02 2.37 1.59 0.81 0.89 1.01 1.32 1.32 0.94 0.82 0.85 0.57 0.62 0.52 0.60 0.48 0.46 0.70 0.42 0.53 0.26 0.23 0.24 0.35 0.11 0.05 0.04 0.02 0.03 0.02 0.02 0.05 0.00 0.02 0.01 0.00 0.00 0.00 0.00 0.00 0.00
0.00 0.00 0.01 0.00 0.00 0.00 0.00 0.00 0.01 0.11 0.06 0.03 0.02 0.03 0.02 0.08 0.05 0.11 0.05 0.08 0.09 0.14 0.30 0.19 0.15 0.06 0.55 0.58 0.63 0.68 2.02 2.23 1.81 2.27 2.03 1.69 2.88 3.07 2.48 2.34 2.56 3.03 2.66 3.05 2.82 2.34 2.17 1.67 2.07 2.10 1.56 1.79 2.21 1.92 1.86 1.33 1.15 1.53 1.28 1.71 1.05 0.97 0.69 0.83 0.56 0.56 0.40 0.32 0.56 0.48 0.51 0.58 1.03 0.96 1.12 0.95 0.19 0.49 0.17 0.14 0.14 0.11 0.05 0.01 0.02 0.02 0.00 0.02 0.06 0.03 0.02 0.00 0.00 0.00 0.00 0.00 0.01
0.00 0.00 0.00 0.00 0.00 0.00 0.00 0.01 0.02 0.03 0.03 0.02 0.01 0.03 0.08 0.05 0.08 0.08 0.04 0.10 0.07 0.18 0.11 0.17 0.12 0.38 0.60 0.91 0.84 1.09 1.18 1.54 1.60 1.10 1.53 1.56 1.49 2.17 2.45 2.85 2.94 2.73 2.64 2.59 2.50 2.63 2.12 2.77 2.34 2.53 2.66 2.54 1.85 2.17 2.22 1.30 1.77 1.69 1.95 1.12 1.61 1.18 0.80 0.44 0.75 0.79 1.16 0.76 0.40 0.60 1.04 1.23 1.31 1.25 1.24 1.29 0.88 0.40 0.37 0.10 0.11 0.08 0.07 0.02 0.01 0.01 0.01 0.01 0.05 0.05 0.05 0.01 0.00 0.00 0.00 0.04 0.04
0.00 0.00 0.00 0.01 0.00 0.01 0.01 0.01 0.00 0.03 0.10 0.02 0.04 0.01 0.16 0.07 0.03 0.02 0.15 0.08 0.10 0.20 0.20 0.46 0.38 0.74 1.00 1.16 1.25 0.70 1.12 1.44 1.20 1.40 1.24 1.03 1.36 1.00 2.03 2.18 2.20 2.11 2.20 2.10 2.26 2.54 3.00 2.49 2.21 2.50 2.48 2.73 2.98 2.62 2.37 1.92 1.55 1.49 1.57 1.27 1.33 1.43 1.51 0.68 0.96 1.56 1.19 1.15 0.93 0.80 1.38 1.41 1.33 1.55 1.65 1.21 1.16 0.41 0.48 0.08 0.09 0.07 0.05 0.03 0.02 0.02 0.04 0.01 0.01 0.06 0.05 0.03 0.00 0.00 0.09 0.17 0.14
0.00 0.00 0.00 0.01 0.00 0.00 0.00 0.01 0.00 0.00 0.05 0.08 0.03 0.05 0.04 0.02 0.11 0.00 0.13 0.11 0.08 0.14 0.35 0.70 0.49 0.88 1.16 1.41 1.16 0.99 0.90 1.00 1.31 1.44 2.02 1.83 1.41 1.75 1.90 2.11 2.23 2.04 1.75 1.80 1.89 2.15 2.82 2.87 2.82 3.84 2.27 2.04 2.01 1.92 2.79 2.15 1.72 1.82 1.93 1.29 0.99 1.13 1.28 1.19 1.46 1.10 1.60 1.84 1.60 1.50 1.53 1.77 1.60 1.60 0.80 0.95 0.67 0.62 0.39 0.16 0.11 0.06 0.04 0.01 0.02 0.04 0.03 0.02 0.03 0.03 0.13 0.05 0.01 0.08 0.26 0.23 0.23
0.00 0.00 0.00 0.00 0.00 0.00 0.01 0.01 0.01 0.01 0.05 0.03 0.01 0.07 0.06 0.02 0.12 0.17 0.07 0.11 0.21 0.27 0.31 0.45 0.48 0.68 0.79 0.75 1.36 1.83 2.01 1.96 2.39 4.14 2.87 1.77 2.57 3.04 2.63 2.17 3.00 3.00 3.16 2.86 2.14 2.55 2.22 2.30 2.22 3.01 3.15 3.76 3.02 2.70 2.92 2.40 1.97 2.80 2.61 1.85 1.98 1.48 1.64 1.43 1.53 1.93 2.42 2.49 2.19 1.72 1.15 1.69 2.08 1.95 1.10 0.86 0.85 0.71 0.76 0.42 0.32 0.32 0.20 0.23 0.03 0.17 0.12 0.23 0.13 0.32 0.14 0.04 0.22 0.14 0.13 0.28 0.23
0.00 0.00 0.00 0.00 0.00 0.00 0.00 0.00 0.00 0.03 0.01 0.05 0.05 0.04 0.05 0.02 0.00 0.20 0.07 0.13 0.42 0.35 0.83 0.39 0.47 0.64 0.94 0.94 1.72 1.25 1.93 2.39 3.64 4.97 3.33 3.89 5.28 3.46 2.65 2.75 2.97 2.82 2.43 1.99 1.81 2.28 2.09 2.00 2.39 2.47 2.43 2.19 1.84 2.47 2.55 2.25 2.40 3.12 2.70 2.82 2.38 2.41 1.81 2.27 2.18 2.21 2.16 2.11 1.69 1.27 1.52 1.67 1.66 1.15 1.68 1.16 1.00 0.70 0.54 0.36 0.47 0.43 0.29 0.41 0.10 0.34 0.26 0.21 0.16 0.19 0.08 0.22 0.14 0.13 0.10 0.06 0.05
0.00 0.00 0.00 0.00 0.00 0.00 0.00 0.01 0.00 0.00 0.00 0.02 0.02 0.03 0.01 0.05 0.05 0.07 0.02 0.04 0.19 0.38 0.81 0.56 0.47 0.68 1.08 1.41 1.65 1.69 2.35 3.14 4.91 3.51 2.63 4.25 3.55 2.61 1.97 2.63 2.94 3.25 3.37 3.53 2.98 2.20 2.24 2.37 3.02 3.44 2.56 2.03 2.26 2.20 2.46 2.35 2.22 3.07 2.42 2.19 2.14 2.39 2.41 2.55 2.96 2.19 2.30 2.45 2.47 2.24 2.08 1.91 1.61 1.25 1.06 0.94 0.87 1.15 1.32 1.15 0.72 0.82 0.53 0.62 0.25 0.63 0.53 0.25 0.42 0.53 0.57 0.12 0.07 0.09 0.06 0.11 0.08
0.00 0.00 0.00 0.00 0.00 0.00 0.00 0.00 0.01 0.04 0.01 0.09 0.03 0.00 0.03 0.05 0.09 0.05 0.07 0.12 0.18 0.66 0.83 0.85 1.11 1.31 1.22 1.77 1.46 1.67 1.84 3.69 4.44 4.63 4.75 3.36 2.94 2.51 2.22 3.08 2.87 2.84 3.29 2.69 2.69 3.14 2.57 2.41 2.34 2.89 2.75 2.75 2.37 2.88 2.56 2.42 2.26 1.99 1.80 2.41 2.51 1.77 1.91 2.37 2.67 2.38 2.81 2.23 1.45 2.11 1.88 1.94 1.56 1.55 1.34 1.30 0.96 1.28 1.58 1.01 0.97 1.00 1.09 1.04 0.76 0.55 0.77 0.76 0.46 0.33 0.39 0.40 0.20 0.15 0.50 0.28 0.34
0.00 0.00 0.00 0.00 0.00 0.00 0.00 0.05 0.01 0.03 0.01 0.02 0.03 0.03 0.17 0.01 0.04 0.03 0.07 0.23 0.25 0.45 0.52 0.90 1.20 1.76 1.60 1.13 1.94 2.55 2.82 3.40 2.20 2.47 3.14 4.29 3.66 2.37 2.78 3.61 2.68 2.30 2.34 2.51 3.59 3.86 2.43 2.88 2.74 2.64 2.81 3.60 3.02 2.71 2.86 2.61 2.16 2.32 1.88 2.14 2.59 2.41 2.08 1.97 2.89 2.88 1.92 1.74 1.63 1.59 1.87 2.02 2.11 1.34 1.51 1.54 1.79 1.24 1.04 0.85 0.68 0.87 1.01 1.01 0.60 0.39 0.80 0.69 0.72 0.92 0.74 0.37 0.16 0.32 0.30 0.34 0.48
0.00 0.00 0.00 0.00 0.00 0.00 0.01 0.01 0.02 0.03 0.02 0.01 0.03 0.11 0.04 0.06 0.05 0.05 0.13 0.15 0.24 0.19 0.38 0.31 0.92 1.38 1.41 1.21 1.52 1.98 1.76 1.26 1.43 1.59 2.07 2.60 2.85 2.59 2.73 2.56 2.32 2.22 2.25 2.68 3.32 4.02 3.36 3.26 3.06 2.75 2.81 2.90 3.33 3.19 3.06 1.79 2.08 2.17 1.69 1.49 2.47 1.77 1.89 1.89 1.90 2.10 1.85 1.45 1.35 1.31 1.74 2.19 1.80 1.93 1.86 2.03 1.45 1.80 0.90 1.02 0.90 0.84 0.50 0.63 0.35 0.52 0.62 0.82 1.01 0.54 0.67 0.36 0.53 0.79 0.39 0.27 0.10
0.00 0.00 0.00 0.00 0.00 0.00 0.01 0.05 0.04 0.05 0.11 0.02 0.04 0.09 0.03 0.01 0.01 0.36 0.36 0.12 0.11 0.24 0.46 0.94 1.27 1.43 1.31 0.99 1.29 2.56 1.50 1.31 1.64 2.25 1.63 2.05 2.27 2.45 2.33 2.96 2.01 1.85 2.33 3.03 2.43 2.60 2.85 2.99 4.13 3.75 2.59 3.32 3.32 2.82 2.30 2.03 2.07 1.97 1.70 1.59 1.27 1.25 1.13 1.24 1.26 1.20 1.45 1.68 1.10 1.15 1.24 1.73 2.20 2.25 1.84 2.00 1.52 1.78 1.53 1.44 1.32 2.04 1.48 0.90 0.57 0.43 0.57 0.86 0.87 0.83 0.82 0.57 0.57 0.75 0.48 0.32 0.21
0.00 0.00 0.00 0.01 0.01 0.00 0.00 0.02 0.05 0.03 0.05 0.01 0.03 0.10 0.05 0.04 0.03 0.13 0.22 0.46 0.24 0.28 0.79 1.26 1.09 1.30 1.84 0.97 1.67 1.81 1.91 2.08 2.45 2.21 1.55 1.68 2.01 1.84 1.78 2.34 2.11 1.76 1.72 2.05 2.42 2.54 2.48 2.53 2.18 2.15 2.45 2.90 2.40 3.07 2.64 2.20 1.56 1.53 1.74 1.41 1.24 1.11 0.93 0.71 0.81 0.74 1.07 1.53 1.53 1.48 1.58 1.36 1.44 2.06 2.33 1.92 2.02 1.72 1.86 1.59 2.03 1.92 1.46 1.15 0.85 1.26 0.74 0.82 0.80 0.54 0.83 0.69 1.03 0.92 0.74 0.42 0.16
0.00 0.00 0.00 0.02 0.02 0.04 0.02 0.08 0.02 0.03 0.02 0.08 0.00 0.02 0.05 0.03 0.20 0.13 0.32 0.55 0.67 0.71 0.99 1.12 1.26 1.78 1.42 1.83 2.15 2.20 2.68 1.94 2.09 2.65 2.39 2.94 2.61 2.75 2.55 2.32 2.41 2.18 1.90 1.76 2.40 2.71 2.58 2.05 2.11 2.11 2.15 2.85 2.31 2.18 1.92 2.17 1.87 1.46 1.33 1.43 1.51 0.86 0.86 0.68 1.22 1.05 1.00 1.69 1.56 1.69 1.67 1.16 1.37 1.85 2.42 1.61 1.56 1.45 1.81 1.94 1.56 1.51 2.02 1.64 0.98 0.91 0.81 0.74 0.89 0.44 0.50 0.34 0.31 0.25 0.35 0.29 0.22
0.00 0.00 0.01 0.02 0.04 0.13 0.04 0.02 0.02 0.01 0.13 0.02 0.00 0.09 0.21 0.19 0.09 0.12 0.14 0.36 0.47 0.81 1.36 1.88 2.22 2.02 3.00 2.64 1.63 2.01 2.21 3.66 4.08 3.04 2.69 2.71 2.60 2.49 2.01 2.14 2.63 2.12 1.81 1.73 2.08 1.98 1.59 2.46 2.47 2.27 2.52 3.15 2.34 2.58 2.25 1.99 2.28 2.63 2.10 1.72 1.19 0.84 0.84 0.91 1.07 1.51 1.55 1.61 1.61 1.47 1.72 1.21 1.32 1.67 1.71 1.60 1.69 1.48 1.63 1.68 1.94 1.44 2.10 1.48 1.19 1.13 0.65 0.72 0.58 0.64 0.80 0.50 0.38 0.65 0.75 0.51 0.44
0.00 0.01 0.01 0.16 0.08 0.12 0.02 0.01 0.06 0.01 0.13 0.03 0.00 0.16 0.28 0.32 0.35 0.14 0.20 0.30 0.90 1.61 1.68 2.37 2.65 1.54 1.78 2.02 1.77 1.65 2.44 2.70 2.53 2.44 2.11 2.04 2.48 1.86 2.03 2.03 2.55 1.71 1.95 1.94 2.67 2.21 1.72 2.79 3.48 3.92 3.15 3.34 2.31 2.54 1.51 1.84 2.90 2.43 2.49 2.05 1.57 1.03 1.22 1.22 1.76 1.92 1.08 1.11 1.33 1.85 2.03 1.77 2.15 1.84 2.15 2.28 2.16 1.96 1.70 1.68 1.59 1.64 1.63 1.95 1.33 0.98 1.23 1.21 1.04 1.17 1.03 0.64 0.25 0.65 0.64 0.51 0.52
0.03 0.06 0.15 0.08 0.15 0.36 0.29 0.11 0.02 0.13 0.10 0.00 0.07 0.21 0.26 0.14 0.18 0.20 0.43 0.85 1.38 1.05 1.37 1.86 1.86 1.70 1.37 1.63 1.39 1.45 1.21 1.34 1.53 1.71 2.16 2.77 1.72 1.53 1.67 1.99 1.87 1.72 2.55 2.76 2.84 3.47 3.28 3.80 3.48 2.56 2.64 2.73 2.14 1.45 2.09 2.75 2.55 2.12 2.06 2.27 1.69 1.56 1.35 1.57 1.49 1.53 1.40 1.09 1.07 1.32 1.71 2.20 2.11 1.79 2.11 2.14 2.04 1.58 1.93 1.81 1.42 1.78 1.54 2.16 1.79 1.78 1.83 1.28 1.05 1.31 1.36 0.85 0.47 0.43 0.53 0.56 1.01
0.06 0.08 0.30 0.15 0.06 0.19 0.05 0.04 0.01 0.07 0.03 0.00 0.01 0.21 0.13 0.19 0.33 0.37 0.94 1.51 0.95 0.61 1.48 1.41 1.85 1.65 1.83 1.40 2.43 1.36 1.42 0.81 0.66 0.80 0.79 1.41 1.99 2.04 2.55 3.00 1.97 1.91 1.94 2.19 1.80 2.11 2.35 4.06 4.56 3.42 3.21 3.01 1.98 2.04 2.85 2.85 2.27 1.91 2.13 2.11 2.28 1.53 1.24 1.23 1.26 1.66 1.59 1.53 1.78 1.56 2.77 2.38 1.81 1.86 1.77 1.99 2.10 1.83 1.57 1.53 1.95 1.65 2.25 1.92 2.06 1.84 1.54 2.03 1.44 1.11 0.81 0.86 0.98 0.94 0.68 0.87 1.30
0.04 0.06 0.19 0.10 0.18 0.15 0.04 0.03 0.03 0.00 0.01 0.13 0.02 0.06 0.15 0.14 0.06 0.35 1.48 1.23 0.97 0.61 0.70 1.44 1.08 0.61 0.43 0.83 0.65 1.01 0.71 0.56 0.69 0.72 1.13 1.40 1.17 1.97 3.28 2.10 2.90 2.04 1.79 2.53 2.96 3.40 3.29 3.79 2.67 3.21 3.91 3.76 3.24 2.89 3.26 2.71 2.59 1.97 2.08 1.99 2.01 1.81 1.39 1.36 1.68 1.79 1.98 2.17 3.11 2.39 1.80 1.73 1.43 2.07 1.61 1.76 1.95 1.65 1.71 1.81 1.88 2.09 2.16 2.22 2.58 1.69 2.53 2.29 1.70 1.02 1.04 0.82 1.17 1.10 1.00 1.37 1.10
0.09 0.04 0.13 0.10 0.04 0.03 0.21 0.04 0.03 0.02 0.00 0.11 0.06 0.02 0.09 0.18 0.07 0.06 0.09 0.67 0.65 0.99 1.02 1.66 1.46 0.60 0.50 0.63 0.70 0.65 0.72 0.93 0.54 1.11 1.65 1.72 1.53 1.52 1.61 1.56 2.23 2.03 1.91 2.34 5.02 5.86 3.11 3.80 4.70 4.23 4.05 3.73 3.68 3.97 3.53 3.00 2.67 1.96 1.91 2.33 2.01 2.23 2.03 1.24 1.75 2.08 2.18 3.22 2.74 3.01 3.31 2.46 1.69 1.39 1.39 2.26 2.12 1.90 1.75 1.75 2.04 2.37 2.28 1.99 1.48 1.83 2.05 1.40 1.31 1.51 0.99 0.79 0.84 0.82 1.21 1.12 1.08
0.04 0.03 0.06 0.07 0.13 0.08 0.14 0.02 0.05 0.00 0.03 0.01 0.04 0.21 0.15 0.08 0.05 0.05 0.40 0.50 0.53 1.21 1.45 1.34 1.24 1.71 1.19 0.97 0.67 0.73 0.70 0.95 1.36 1.08 1.44 1.29 1.32 1.13 1.05 1.30 1.58 1.92 2.41 3.54 4.82 3.55 3.11 3.17 3.11 3.94 3.67 4.62 4.06 2.61 1.94 1.94 1.99 1.89 2.13 2.04 1.65 1.89 1.59 1.11 1.74 2.91 2.23 2.39 2.16 2.38 2.75 2.58 1.83 1.43 1.58 2.16 2.61 2.23 2.39 2.08 2.36 2.47 2.15 1.80 1.73 1.31 1.20 1.11 1.49 1.77 1.65 1.01 0.82 0.70 0.71 1.18 1.20
0.00 0.01 0.01 0.13 0.09 0.06 0.04 0.04 0.05 0.00 0.03 0.05 0.03 0.08 0.03 0.04 0.02 0.04 0.09 0.12 1.06 1.41 2.11 2.48 2.50 1.32 0.58 1.02 0.45 0.83 0.86 0.85 0.94 0.95 1.14 1.57 1.77 2.07 1.15 0.69 0.75 1.01 1.74 3.09 4.03 4.03 3.31 3.81 3.60 2.63 2.92 3.19 2.47 2.51 1.97 2.05 1.62 1.88 1.75 1.56 1.48 1.89 1.72 1.91 1.58 2.88 1.78 1.75 2.21 1.98 1.63 1.84 2.82 1.96 2.00 1.93 1.57 1.56 2.07 1.79 2.08 2.22 1.50 2.00 1.34 1.24 1.09 0.98 1.40 1.80 1.86 2.00 1.71 1.19 1.66 1.15 2.76
0.00 0.01 0.00 0.04 0.01 0.12 0.06 0.09 0.00 0.01 0.03 0.17 0.00 0.02 0.04 0.06 0.06 0.06 0.09 0.09 0.41 0.41 0.54 0.33 0.81 1.04 0.98 0.90 0.79 0.43 1.05 1.36 1.00 0.61 0.76 0.75 0.91 1.00 1.31 1.32 1.13 1.34 2.16 3.60 3.30 3.66 3.39 3.65 4.74 3.63 3.33 3.37 2.56 2.29 1.77 2.22 1.60 1.75 1.83 2.15 1.87 1.43 1.87 2.11 2.03 1.34 1.89 1.98 2.16 1.52 1.90 1.70 2.03 1.88 1.44 1.91 1.28 1.17 1.55 1.16 1.42 1.93 1.40 1.07 1.01 1.02 1.45 1.39 1.23 1.84 1.67 1.58 1.42 1.46 2.49 1.40 2.17
0.00 0.02 0.01 0.02 0.11 0.07 0.00 0.00 0.00 0.00 0.00 0.06 0.02 0.01 0.10 0.09 0.10 0.09 0.06 0.05 0.10 0.07 0.06 0.12 0.39 0.59 0.63 0.55 0.53 1.26 1.55 1.01 0.71 0.44 0.46 0.84 0.73 0.76 1.13 1.25 1.39 1.91 2.87 2.36 2.77 3.58 3.81 3.13 3.88 3.95 4.83 3.86 2.24 1.68 1.55 1.32 1.33 2.51 2.89 2.17 1.35 2.06 2.32 1.95 1.89 2.29 2.46 2.46 3.08 2.50 2.20 1.52 1.80 2.03 1.54 1.31 1.43 1.24 1.45 1.41 1.43 1.76 1.47 1.29 1.29 1.15 1.24 1.66 1.23 1.50 2.09 1.40 2.21 2.24 2.58 2.05 1.79
0.00 0.02 0.01 0.09 0.10 0.02 0.19 0.10 0.01 0.03 0.00 0.05 0.03 0.07 0.12 0.06 0.05 0.07 0.14 0.13 0.13 0.11 0.13 0.25 0.79 0.90 0.56 0.78 0.59 0.88 0.71 0.50 1.25 0.90 0.65 0.72 1.02 1.51 0.96 1.51 1.45 2.36 3.36 3.08 2.41 2.68 2.95 3.20 3.49 2.50 3.55 2.46 2.35 2.05 1.86 2.09 1.06 2.34 1.68 1.80 3.16 2.12 2.11 2.50 3.29 3.04 2.39 2.03 2.26 2.12 2.17 1.23 1.03 1.13 1.23 1.00 1.13 1.48 1.13 1.18 1.21 1.36 1.28 1.08 1.18 1.28 0.96 1.46 1.47 1.43 1.50 1.44 1.35 1.95 1.18 1.65 1.37
0.02 0.01 0.01 0.02 0.03 0.09 0.00 0.15 0.02 0.00 0.01 0.00 0.01 0.04 0.15 0.16 0.21 0.21 0.18 0.41 0.78 1.07 0.92 0.50 0.55 0.43 1.26 1.57 1.29 0.88 1.18 0.65 0.89 1.13 1.23 1.34 1.76 2.09 2.04 2.09 2.98 3.42 2.80 2.66 2.67 2.75 3.04 3.62 3.30 2.17 2.73 2.54 1.77 1.97 2.02 1.95 1.90 1.85 1.75 3.09 2.73 2.77 2.88 2.84 3.04 2.61 1.97 2.19 1.90 1.89 1.74 1.02 1.18 1.35 1.15 1.14 0.91 1.04 0.75 0.90 1.19 1.11 1.29 1.01 0.84 1.16 1.04 1.03 1.48 2.11 1.67 1.61 1.22 1.19 1.93 1.01 1.19
0.06 0.10 0.03 0.00 0.01 0.00 0.01 0.00 0.01 0.03 0.15 0.05 0.01 0.17 0.49 0.38 0.16 0.14 0.19 0.33 1.06 1.77 1.30 0.42 0.77 0.94 1.28 1.67 1.13 1.86 1.82 1.07 1.12 0.93 0.77 0.59 0.92 1.07 2.33 3.84 2.82 2.31 2.04 3.43 2.97 3.78 3.72 3.36 2.26 2.13 3.09 2.86 1.96 1.63 1.56 2.14 1.81 2.49 2.75 2.24 2.92 2.06 2.13 2.25 2.36 1.82 1.69 1.55 1.50 1.23 1.35 1.29 1.58 1.26 1.24 1.01 1.16 1.07 0.98 1.02 1.25 1.08 1.32 0.88 1.09 1.22 0.98 1.88 1.50 1.72 1.58 1.17 1.67 1.48 1.64 1.17 1.52
0.03 0.16 0.00 0.01 0.01 0.00 0.01 0.00 0.02 0.16 0.43 0.42 0.02 0.15 0.64 0.33 0.49 0.46 0.38 0.31 0.33 0.44 0.72 0.40 0.26 0.84 1.05 1.09 0.93 1.44 1.17 0.90 1.11 1.25 1.18 0.93 1.36 1.72 3.09 2.92 2.13 1.92 2.21 1.51 2.79 4.02 4.15 3.82 2.10 1.70 2.08 2.71 2.44 2.46 3.08 2.91 2.17 2.25 2.20 2.57 2.55 2.20 2.30 2.04 1.61 1.36 1.43 1.47 1.20 1.30 1.72 1.69 1.58 1.22 0.96 0.63 0.74 0.78 0.85 0.73 0.82 0.96 0.75 1.23 1.14 1.40 1.31 1.49 1.24 1.38 1.29 1.90 1.32 1.16 1.50 1.75 1.15
0.26 0.02 0.01 0.00 0.00 0.01 0.03 0.01 0.02 0.14 0.01 0.05 0.01 0.06 0.33 0.46 0.58 0.42 0.38 0.23 0.47 0.45 0.32 0.69 1.09 0.79 1.45 1.33 1.02 1.17 0.92 1.05 0.92 1.31 1.59 1.31 1.47 1.73 2.04 2.04 1.95 2.43 2.66 2.07 4.13 4.46 2.17 1.93 1.70 1.48 2.15 2.98 2.78 2.36 3.52 2.40 2.32 3.25 3.04 3.00 2.26 1.80 1.42 1.69 1.32 1.03 1.31 2.04 1.68 1.32 1.56 1.26 0.98 0.88 0.69 0.78 0.58 0.57 0.84 1.07 0.88 1.11 0.68 0.67 1.33 1.91 1.74 1.39 1.28 1.25 1.75 1.73 0.91 1.24 1.41 1.50 0.73
0.09 0.00 0.00 0.00 0.00 0.02 0.01 0.03 0.06 0.06 0.05 0.53 0.10 0.19 0.13 0.37 0.41 0.78 0.81 0.53 0.93 0.71 0.47 0.70 0.58 0.61 1.24 0.87 0.66 0.77 0.65 0.48 0.99 1.20 1.28 1.25 1.95 1.72 1.31 1.35 1.31 1.75 2.25 2.95 2.62 3.34 2.95 2.66 1.74 1.66 2.98 2.91 2.35 1.51 1.46 1.97 2.21 2.90 2.51 2.57 2.62 1.93 1.70 1.74 1.49 1.75 1.42 1.83 0.99 1.08 0.98 0.95 0.93 0.84 1.12 0.85 1.13 1.11 0.96 0.86 0.94 0.75 1.04 0.96 1.16 1.56 1.31 1.49 1.45 1.76 1.43 1.14 1.09 1.58 1.28 1.80 1.70
0.03 0.00 0.00 0.01 0.00 0.00 0.02 0.05 0.09 0.20 0.06 0.22 0.17 0.20 0.13 0.41 0.45 0.64 1.33 0.67 0.73 0.95 0.92 0.35 0.28 0.29 0.43 0.51 0.61 0.50 0.70 0.65 0.41 1.05 0.53 1.19 1.69 2.58 2.09 2.04 1.71 2.27 2.02 2.31 2.92 5.07 2.85 2.51 3.57 2.89 3.27 2.71 2.12 1.44 1.86 2.53 2.43 2.32 2.53 1.73 1.75 1.64 1.43 1.54 1.28 1.04 0.90 0.94 1.11 1.18 1.17 1.31 1.11 0.96 0.86 0.91 1.08 1.08 0.77 0.55 0.60 0.61 0.99 1.09 1.76 1.02 1.18 1.15 1.08 1.25 1.31 1.19 1.18 1.66 1.87 1.70 1.44
0.00 0.00 0.01 0.01 0.02 0.03 0.04 0.03 0.15 0.18 0.07 0.31 0.15 0.10 0.10 0.52 0.36 0.29 0.67 0.42 0.19 0.24 0.45 0.36 0.40 1.09 0.81 0.77 0.69 0.47 0.55 0.62 0.57 1.05 1.16 0.84 1.19 1.35 1.53 1.52 1.93 2.25 2.64 2.45 3.25 3.89 1.99 2.19 2.69 3.18 3.54 2.92 2.45 3.11 2.75 2.95 2.65 3.69 1.47 1.39 1.43 0.99 0.88 0.91 1.62 0.93 0.75 1.63 1.30 1.21 1.91 1.91 1.79 1.26 1.10 0.98 0.61 0.69 0.69 0.59 0.49 0.73 0.99 1.06 1.27 1.19 1.13 0.97 1.06 1.42 1.89 1.93 2.67 1.67 1.30 1.34 1.60
0.01 0.03 0.04 0.02 0.08 0.06 0.04 0.13 0.08 0.29 0.29 0.25 0.10 0.11 0.07 0.21 0.46 0.24 0.19 0.16 0.14 0.13 0.24 0.26 0.34 0.33 0.53 0.79 0.35 0.37 0.54 0.67 0.80 0.80 0.92 1.17 2.35 2.30 2.46 2.94 3.07 3.49 2.54 2.03 1.68 1.69 1.57 1.33 2.37 2.45 3.57 2.85 3.18 4.06 3.59 3.89 3.25 1.85 1.89 2.12 1.38 0.91 0.78 0.67 0.94 0.70 0.63 0.77 0.50 0.87 1.25 2.53 2.04 1.88 1.07 0.92 0.54 0.33 0.56 0.77 0.70 0.92 0.97 0.96 0.96 0.73 1.36 1.59 1.75 1.63 1.80 1.74 1.88 1.29 1.92 1.64 1.52
0.04 0.04 0.04 0.33 0.62 0.28 0.45 0.25 0.36 0.19 0.21 0.23 0.09 0.08 0.14 0.09 0.37 0.25 0.24 0.25 0.17 0.08 0.12 0.24 0.30 0.42 0.50 0.65 0.41 0.57 0.54 0.95 0.94 1.52 3.29 2.44 1.95 1.92 1.95 1.76 1.77 1.68 2.31 1.81 1.56 1.21 0.86 1.86 2.09 2.91 4.15 3.28 3.21 3.10 3.14 2.94 1.90 1.69 1.24 0.87 0.77 0.59 0.80 0.96 1.27 0.68 0.84 0.98 0.90 1.11 1.07 1.39 1.26 1.04 1.16 0.82 0.66 0.64 0.76 0.86 0.84 0.76 0.88 0.67 1.30 1.30 2.01 1.71 2.09 1.96 1.70 1.64 1.73 0.97 1.14 1.56 1.63
0.05 0.04 0.17 0.18 0.51 0.31 0.11 0.33 0.16 0.27 0.13 0.06 0.10 0.07 0.17 0.30 0.49 0.12 0.31 0.22 0.14 0.18 0.15 0.51 0.84 0.67 0.32 0.56 0.57 0.85 1.51 1.81 1.97 4.37 3.07 2.86 2.17 0.98 1.68 1.89 2.64 2.60 2.13 1.56 1.37 0.93 1.33 2.34 3.21 3.01 3.60 2.28 2.25 2.64 2.32 1.54 1.23 1.18 1.21 0.82 0.71 0.86 1.21 1.36 1.28 1.04 1.42 1.52 1.33 1.48 1.21 0.93 1.12 0.88 0.93 0.96 0.87 1.10 1.16 1.06 1.34 1.06 1.29 1.28 1.30 0.90 1.10 1.82 2.48 1.92 1.88 1.51 1.06 0.94 1.89 1.78 1.70
0.02 0.01 0.04 0.55 0.36 0.39 0.27 0.19 0.27 0.20 0.43 0.24 0.14 0.08 0.13 0.19 2.10 0.33 0.23 0.12 0.08 0.10 0.18 0.23 0.27 0.54 0.88 0.65 0.70 1.18 2.95 3.20 3.70 2.13 1.12 0.78 0.78 0.98 1.02 1.66 1.72 1.55 1.67 1.19 0.80 0.69 0.94 2.69 2.90 3.62 5.20 2.64 3.01 1.71 1.78 1.38 1.36 1.14 1.22 1.28 1.76 0.99 1.21 1.02 0.60 0.76 1.02 1.26 1.62 1.40 1.63 1.46 1.05 1.04 1.05 1.04 0.92 0.90 0.70 1.38 1.20 1.87 1.04 0.91 0.90 1.19 1.13 1.90 2.04 1.73 1.42 1.43 1.68 1.41 1.59 1.76 1.66
0.02 0.04 0.05 0.12 0.26 0.12 0.47 0.58 0.22 0.42 0.39 0.14 0.13 0.16 0.57 1.04 1.28 0.50 0.18 0.10 0.09 0.12 0.27 0.31 0.44 0.44 0.54 1.41 2.03 2.32 2.09 2.06 1.44 0.98 0.52 0.70 0.77 0.58 0.39 0.67 0.89 1.38 1.53 2.53 1.62 1.92 2.15 3.28 2.54 3.28 3.96 2.37 2.14 1.88 2.11 1.98 1.32 1.14 1.14 0.66 1.16 1.28 0.50 1.21 0.67 0.99 0.87 1.05 1.16 0.98 0.76 0.87 1.30 2.12 2.00 1.19 1.33 0.88 1.09 1.37 2.23 1.91 1.79 1.97 1.73 1.88 2.15 2.27 1.77 1.97 1.70 1.75 1.04 1.05 1.71 2.09 1.33
0.21 0.03 0.13 0.09 0.06 0.09 0.15 0.12 0.11 0.10 0.15 0.16 0.03 0.21 0.43 0.45 1.07 0.56 0.41 0.28 0.23 0.11 0.24 0.14 0.46 0.79 0.93 1.70 1.69 1.47 1.39 1.43 1.15 1.64 1.77 1.28 0.79 0.65 0.51 0.94 0.95 0.63 1.67 1.93 2.30 3.19 2.98 2.36 1.97 2.19 4.05 3.59 3.44 2.78 2.73 2.22 1.34 0.95 0.79 0.83 0.91 0.72 0.42 0.73 1.24 0.65 0.45 0.45 0.74 0.94 0.79 0.62 1.19 1.64 0.79 0.83 1.33 2.40 2.06 2.31 2.12 2.51 2.48 2.17 1.86 1.84 2.18 1.98 2.61 2.50 1.84 1.50 1.24 1.75 1.78 1.43 1.33
0.11 0.17 0.11 0.12 0.14 0.22 0.24 0.58 0.37 0.16 0.36 0.15 0.06 0.17 0.51 0.17 1.02 0.85 0.57 0.66 0.36 0.33 0.32 0.25 0.37 0.70 0.98 1.36 0.90 0.70 1.39 1.33 1.15 1.57 1.81 1.91 1.28 1.46 1.63 1.23 0.84 0.86 1.59 1.54 1.59 2.58 2.67 3.36 2.85 3.53 5.00 2.39 3.73 3.28 2.30 1.82 1.67 1.19 1.32 1.65 1.33 1.14 0.76 0.79 0.70 0.37 0.23 0.41 0.53 0.93 1.09 0.83 0.85 1.09 1.44 1.24 1.76 2.35 3.20 3.22 2.91 2.64 2.47 2.54 2.57 2.22 2.38 3.30 3.27 2.57 1.92 1.74 1.60 1.99 1.65 1.15 1.24
0.12 0.18 0.10 0.17 0.51 0.42 0.19 0.23 0.45 0.37 0.32 0.35 0.20 0.17 0.16 0.25 0.96 0.56 0.65 0.38 0.49 0.46 0.27 0.23 0.37 0.73 1.07 1.25 1.15 0.90 1.14 0.99 0.97 0.90 1.20 1.34 0.81 0.56 0.59 0.76 0.96 1.07 0.85 0.60 0.69 0.62 0.94 1.81 3.43 4.54 4.96 4.43 3.15 1.86 1.65 1.41 1.19 1.64 1.07 1.27 1.32 0.86 0.60 0.64 0.45 0.38 0.44 0.38 0.32 0.50 0.68 1.15 0.87 1.15 1.18 1.16 2.26 3.20 2.58 1.80 2.25 2.45 2.71 2.07 2.93 2.38 1.80 2.75 2.66 2.20 1.79 1.52 2.09 1.96 1.74 1.46 1.31
0.04 0.01 0.08 0.17 0.17 0.37 0.56 0.45 0.68 0.62 0.61 0.34 0.43 0.25 0.48 0.33 0.59 0.26 0.39 0.29 0.41 0.43 0.45 0.39 0.52 0.46 0.51 0.46 0.49 0.55 0.65 0.88 1.03 0.98 0.99 1.44 1.53 1.80 1.59 0.99 0.96 0.82 0.76 0.65 0.50 0.42 0.49 1.12 2.01 2.40 2.23 3.11 2.74 2.31 1.33 0.68 1.16 0.76 0.92 1.16 0.64 0.68 0.79 0.79 0.84 0.81 0.81 0.74 0.55 0.51 0.75 1.03 1.75 1.64 1.58 1.95 1.56 1.33 1.25 1.20 1.25 1.42 1.23 1.80 2.23 2.05 1.10 1.23 1.11 1.26 1.27 0.91 1.30 1.56 1.73 1.06 1.19
0.18 0.11 0.11 0.26 0.24 0.32 0.20 0.63 0.32 0.53 0.53 0.51 0.44 0.46 0.71 0.71 0.28 0.33 0.30 0.58 0.49 0.35 0.33 0.44 0.57 0.98 0.75 1.20 1.17 0.91 0.48 0.46 0.78 0.94 0.93 0.77 0.68 0.94 0.62 0.81 0.76 1.16 0.74 0.54 0.63 0.76 0.70 0.82 0.86 0.88 0.93 0.79 0.96 2.56 2.23 1.64 0.94 1.45 0.90 0.89 1.22 1.47 1.25 0.96 0.93 0.99 1.08 0.68 0.79 0.66 0.66 1.55 1.26 0.80 0.84 1.20 1.18 0.87 0.97 1.25 1.14 1.43 1.41 1.18 1.16 1.14 1.30 1.11 1.43 1.01 1.00 1.19 1.17 1.30 1.20 1.01 1.04
0.39 0.26 0.36 0.40 0.59 0.78 0.81 0.68 0.17 0.26 0.41 0.46 0.37 0.47 0.67 0.67 0.21 0.63 0.66 0.40 0.86 0.66 0.70 0.72 0.82 0.68 0.91 1.03 0.75 0.73 1.05 0.84 0.62 0.78 0.65 0.85 1.38 0.90 0.69 0.60 0.57 0.54 0.76 0.79 0.53 0.69 0.67 0.51 0.62 0.71 1.34 0.79 0.72 1.42 2.12 2.39 2.59 1.97 2.16 2.18 1.81 1.78 1.67 1.30 0.95 0.72 0.84 1.05 1.41 1.57 1.08 1.06 1.32 1.69 1.63 1.69 1.40 1.63 1.57 0.77 0.78 1.00 1.17 1.20 1.09 1.06 1.50 1.21 0.93 1.52 1.66 1.61 2.14 1.75 1.12 1.47 1.80